UPS158 KBOS-KDFW

Flight info

Callsign UPS158
Flight time N/A
Altitude 28000
Route BLZZR6 BLZZR BAF Q406 BWZ J6 HVQ Q68 LITTR FEWWW BRDJE5
Aircraft A306/H-SDE3FGHIRWY/LB1

Departure

Time 2026-05-06 19:42
Airport Boston Logan International Airport (KBOS)

Arrival

Time N/A
Airport Dallas Fort Worth International Airport (KDFW)
Time Latitude Longitude Altitude Speed Heading
2026-05-06 19:16 42.37263 -71.02651 32 ft 0 kts 220°
2026-05-06 19:28 42.37268 -71.02645 30 ft 4 kts 220°
2026-05-06 19:28 42.37288 -71.02622 30 ft 4 kts 220°
2026-05-06 19:29 42.37307 -71.02603 31 ft 4 kts 195°
2026-05-06 19:29 42.37329 -71.02608 29 ft 4 kts 139°
2026-05-06 19:29 42.37342 -71.02625 30 ft 1 kts 131°
2026-05-06 19:29 42.37343 -71.02628 30 ft 0 kts 131°
2026-05-06 19:33 42.37336 -71.02616 30 ft 4 kts 131°
2026-05-06 19:34 42.37309 -71.02575 31 ft 6 kts 130°
2026-05-06 19:34 42.37286 -71.02538 31 ft 4 kts 130°
2026-05-06 19:34 42.37278 -71.02525 31 ft 0 kts 130°
2026-05-06 19:35 42.37260 -71.02497 31 ft 7 kts 131°
2026-05-06 19:35 42.37215 -71.02434 31 ft 11 kts 135°
2026-05-06 19:35 42.37165 -71.02365 31 ft 10 kts 130°
2026-05-06 19:36 42.37146 -71.02265 31 ft 11 kts 75°
2026-05-06 19:36 42.37191 -71.02192 31 ft 9 kts 43°
2026-05-06 19:36 42.37229 -71.02125 31 ft 10 kts 67°
2026-05-06 19:36 42.37232 -71.02020 31 ft 11 kts 95°
2026-05-06 19:37 42.37251 -71.01934 31 ft 9 kts 50°
2026-05-06 19:37 42.37288 -71.01873 31 ft 9 kts 68°
2026-05-06 19:37 42.37261 -71.01778 31 ft 13 kts 133°
2026-05-06 19:37 42.37214 -71.01716 31 ft 15 kts 135°
2026-05-06 19:38 42.37099 -71.01561 31 ft 20 kts 135°
2026-05-06 19:38 42.37004 -71.01435 31 ft 18 kts 135°
2026-05-06 19:38 42.36926 -71.01321 31 ft 15 kts 116°
2026-05-06 19:38 42.36937 -71.01190 31 ft 14 kts 68°
2026-05-06 19:39 42.37014 -71.01094 31 ft 16 kts 28°
2026-05-06 19:39 42.37124 -71.01021 31 ft 19 kts 26°
2026-05-06 19:39 42.37254 -71.00936 31 ft 23 kts 25°
2026-05-06 19:39 42.37352 -71.00883 31 ft 23 kts 20°
2026-05-06 19:40 42.37545 -71.00789 31 ft 21 kts 20°
2026-05-06 19:40 42.37634 -71.00746 31 ft 20 kts 20°
2026-05-06 19:40 42.37757 -71.00686 31 ft 18 kts 20°
2026-05-06 19:40 42.37833 -71.00601 31 ft 12 kts 81°
2026-05-06 19:41 42.37814 -71.00497 30 ft 10 kts 118°
2026-05-06 19:41 42.37770 -71.00486 31 ft 5 kts 196°
2026-05-06 19:41 42.37764 -71.00489 31 ft 3 kts 199°
2026-05-06 19:41 42.37579 -71.00577 32 ft 61 kts 199°
2026-05-06 19:42 42.36971 -71.00870 32 ft 122 kts 199°
2026-05-06 19:42 42.36025 -71.01332 263 ft 161 kts 199°
2026-05-06 19:42 42.34908 -71.01837 1031 ft 181 kts 196°
2026-05-06 19:42 42.33599 -71.02068 1764 ft 193 kts 180°
2026-05-06 19:43 42.32247 -71.01595 2257 ft 218 kts 162°